Вернуться в каталог

METEOR 2-7 DEB

АктивенPO
NORAD 35424·DEBRIS·🇷🇺 Russia

Запущен May 14, 1981 с Plesetsk Cosmodrome

Loading…

Ближайшие Пролёты (ближайшие 24 часа)

TLE

СвежийSource: Space-Track

Эпоха: Sep 14, 2026, 12:50 UTC

1 35424U 81043M   26257.53496279  .00015470  00000-0  23019-2 0  9995
2 35424  81.2413 194.9678 0023165 114.2783 246.0846 14.74673298262478

Отслеживайте METEOR 2-7 DEB в реальном времени с AllMySat

Download on the App Store